FW5161 Weather Reports


time (UTC)temp
C
wind
direction
speed
KPH
gust
KPH
rain 1hr
cm
rain 24hr
cm
rain mn
cm
humidity
%
barometer
mb
20260506103712 11 127 30.6 61.2 0.00 0.00 0.00 80 1014.5
20260506103212 11 154 29.0 53.1 0.00 0.00 0.00 80 1014.5
20260506102944 11 153 30.6 51.5 0.00 0.00 0.00 80 1014.5
20260506102212 11 120 30.6 54.7 0.00 0.00 0.00 80 1014.4
20260506101712 11 158 32.2 66.0 0.00 0.00 0.00 80 1014.4
20260506101211 11 193 33.8 66.0 0.00 0.00 0.00 81 1014.4
20260506100712 11 150 32.2 64.4 0.00 0.00 0.00 81 1014.5
20260506100212 12 93 30.6 61.2 0.00 0.00 0.00 80 1014.2
20260506095712 12 150 29.0 56.3 0.00 0.00 0.00 80 1014.2
20260506095212 12 128 27.4 56.3 0.00 0.00 0.00 80 1014.1
20260506094712 12 191 24.1 51.5 0.00 0.00 0.00 79 1013.9
20260506094210 12 171 22.5 49.9 0.00 0.00 0.00 79 1014.0
20260506093710 12 84 20.9 46.7 0.00 0.00 0.00 79 1014.1
20260506093440 12 164 22.5 45.1 0.00 0.00 0.00 78 1014.0
20260506092707 12 247 24.1 51.5 0.00 0.00 0.00 77 1014.1
20260506092206 13 168 27.4 51.5 0.00 0.00 0.00 77 1014.0
20260506091706 13 139 32.2 57.9 0.00 0.00 0.00 75 1014.2
20260506091205 13 154 30.6 57.9 0.00 0.00 0.00 76 1014.1
20260506090708 13 124 30.6 49.9 0.00 0.00 0.00 75 1014.0
20260506090209 13 164 32.2 57.9 0.00 0.00 0.00 75 1014.0
20260506085709 13 139 32.2 57.9 0.00 0.00 0.00 75 1013.9
20260506085210 13 95 32.2 57.9 0.00 0.00 0.00 74 1013.9
20260506084705 13 136 30.6 54.7 0.00 0.00 0.00 76 1013.8
20260506084204 13 182 32.2 54.7 0.00 0.00 0.00 77 1013.7
20260506083203 13 155 30.6 54.7 0.00 0.00 0.00 77 1013.6
20260506082703 13 115 32.2 54.7 0.00 0.00 0.00 76 1013.9
20260506082203 13 128 32.2 59.5 0.00 0.00 0.00 78 1013.7
20260506081702 13 139 30.6 59.5 0.00 0.00 0.00 78 1013.8
20260506081205 13 155 32.2 56.3 0.00 0.00 0.00 79 1013.7
20260506080932 13 177 33.8 57.9 0.00 0.00 0.00 79 1013.9
20260506080431 13 148 32.2 57.9 0.00 0.00 0.00 78 1014.0
20260506073202 13 171 35.4 61.2 0.00 0.00 0.00 79 1013.1
20260506072700 13 99 32.2 54.7 0.00 0.00 0.00 79 1013.2
20260506072431 13 173 33.8 54.7 0.00 0.00 0.00 78 1013.1
20260506071658 13 144 35.4 70.8 0.00 0.00 0.00 78 1013.2
20260506071158 13 143 33.8 70.8 0.00 0.00 0.00 78 1013.1
20260506070657 13 151 33.8 59.5 0.00 0.00 0.00 78 1013.1
20260506070158 13 163 33.8 61.2 0.00 0.00 0.00 79 1013.2
20260506062151 14 157 30.6 59.5 0.00 0.00 0.00 78 1013.0
20260506061652 14 148 32.2 57.9 0.00 0.00 0.00 78 1013.1
20260506061151 14 130 32.2 54.7 0.00 0.00 0.00 78 1013.0
20260506060649 14 166 32.2 54.7 0.00 0.00 0.00 79 1013.3
20260506060149 14 133 30.6 54.7 0.00 0.00 0.00 79 1013.0
20260506051133 15 132 29.0 51.5 0.00 0.00 0.00 78 1013.1
20260506050630 15 145 25.7 48.3 0.00 0.00 0.00 77 1012.9
20260506050128 15 180 29.0 57.9 0.00 0.00 0.00 77 1013.1
20260506045129 15 162 29.0 59.5 0.00 0.00 0.00 77 1012.8
20260506044629 15 133 30.6 57.9 0.00 0.00 0.00 77 1012.9
20260506044134 15 121 30.6 57.9 0.00 0.00 0.00 76 1012.8
20260506043858 15 146 30.6 53.1 0.00 0.00 0.00 76 1012.5
20260506043354 15 156 30.6 53.1 0.00 0.00 0.00 75 1012.4
20260506042629 15 149 30.6 53.1 0.00 0.00 0.00 75 1012.4
20260506042129 15 146 32.2 54.7 0.00 0.00 0.00 75 1012.3
20260506041130 15 135 30.6 51.5 0.00 0.00 0.00 74 1012.2
20260506040855 16 114 27.4 49.9 0.00 0.00 0.00 74 1012.2
20260506040129 16 157 27.4 49.9 0.00 0.00 0.00 73 1012.3
20260506035858 16 144 29.0 53.1 0.00 0.00 0.00 73 1012.3
20260506035131 16 149 30.6 53.1 0.00 0.00 0.00 72 1012.2
20260506034629 16 108 30.6 51.5 0.00 0.00 0.00 72 1012.3
20260506034129 16 153 29.0 51.5 0.00 0.00 0.00 72 1012.2
20260506033628 16 99 27.4 54.7 0.00 0.00 0.00 72 1012.2
20260506033129 16 143 27.4 54.7 0.00 0.00 0.00 71 1012.2
20260506032901 16 162 25.7 54.7 0.00 0.00 0.00 71 1012.1
20260506032359 16 131 27.4 54.7 0.00 0.00 0.00 71 1011.9
20260506031629 16 122 27.4 51.5 0.00 0.00 0.00 70 1012.0
20260506031130 16 102 25.7 48.3 0.00 0.00 0.00 69 1012.0
20260506030628 17 115 25.7 48.3 0.00 0.00 0.00 69 1012.1
20260506030130 17 153 22.5 41.8 0.00 0.00 0.00 68 1011.9
20260506025630 17 117 24.1 38.6 0.00 0.00 0.00 69 1011.9
20260506025130 17 179 25.7 38.6 0.00 0.00 0.00 68 1011.8
20260506024857 17 197 22.5 45.1 0.00 0.00 0.00 68 1011.8
20260506024129 17 194 20.9 45.1 0.00 0.00 0.00 68 1011.8
20260506023629 17 111 17.7 38.6 0.00 0.00 0.00 68 1012.0
20260506023359 17 150 19.3 40.2 0.00 0.00 0.00 69 1012.0
20260506022630 16 149 24.1 41.8 0.00 0.00 0.00 70 1011.9
20260506022358 16 135 24.1 41.8 0.00 0.00 0.00 70 1011.9
20260506021622 16 149 22.5 41.8 0.00 0.00 0.00 70 1012.0
20260506021342 16 161 20.9 41.8 0.00 0.00 0.00 70 1012.0
20260506020609 16 247 17.7 40.2 0.00 0.00 0.00 69 1012.1
20260506020103 17 128 19.3 43.5 0.00 0.00 0.00 70 1012.1
20260506015556 16 137 22.5 43.5 0.00 0.00 0.00 71 1012.2
20260506015050 16 141 24.1 46.7 0.00 0.00 0.00 72 1012.0
20260506014544 16 105 24.1 46.7 0.00 0.00 0.00 72 1012.4
20260506014038 16 113 22.5 40.2 0.00 0.00 0.00 71 1012.4
20260506013539 16 113 24.1 43.5 0.00 0.00 0.00 71 1012.5
20260506013308 16 86 24.1 43.5 0.00 0.00 0.00 72 1012.3
20260506012542 16 118 27.4 46.7 0.00 0.00 0.00 71 1012.4
20260506012307 16 122 27.4 46.7 0.00 0.00 0.00 72 1012.3
20260506011538 16 166 27.4 51.5 0.00 0.00 0.00 71 1012.5
20260506011039 16 144 24.1 51.5 0.00 0.00 0.00 71 1012.5
20260506010538 16 147 20.9 46.7 0.00 0.00 0.00 70 1012.5
20260506010037 16 123 20.9 45.1 0.00 0.00 0.00 70 1012.4
20260506005538 16 114 20.9 45.1 0.00 0.00 0.00 70 1012.4
20260506005038 16 103 20.9 38.6 0.00 0.00 0.00 70 1012.5
20260506004538 16 221 22.5 38.6 0.00 0.00 0.00 70 1012.5
20260506003802 16 135 22.5 45.1 0.00 0.00 0.00 70 1012.6
20260506002809 17 132 17.7 43.5 0.00 0.00 0.00 69 1012.8
20260506002043 16 140 19.3 35.4 0.00 0.00 0.00 69 1012.8
20260506001539 16 138 19.3 37.0 0.00 0.00 0.00 69 1013.0
20260506001039 16 72 17.7 37.0 0.00 0.00 0.00 69 1013.2
20260506000537 17 110 14.5 35.4 0.00 0.00 0.00 68 1013.1
20260506000039 17 85 12.9 30.6 0.00 0.00 0.00 68 1013.1
20260505235537 17 179 9.7 30.6 0.00 0.00 0.00 65 1013.3
20260505235038 19 164 8.0 22.5 0.00 0.00 0.00 64 1013.3
20260505234537 19 327 6.4 14.5 0.00 0.00 0.00 66 1013.3
20260505234037 18 185 6.4 12.9 0.00 0.00 0.00 64 1013.4
20260505233038 19 311 8.0 14.5 0.00 0.00 0.00 65 1013.5
20260505232037 20 330 6.4 14.5 0.00 0.00 0.00 63 1013.6
20260505231538 19 317 6.4 12.9 0.00 0.00 0.00 64 1013.6
20260505231038 20 316 6.4 12.9 0.00 0.00 0.00 62 1013.6
20260505230538 20 333 6.4 17.7 0.00 0.00 0.00 65 1013.6
20260505230254 18 353 6.4 17.7 0.00 0.00 0.00 62 1013.7
20260505225531 19 72 6.4 20.9 0.00 0.00 0.00 64 1013.7
20260505224531 19 314 4.8 12.9 0.00 0.00 0.00 65 1013.8
20260505224031 18 271 4.8 16.1 0.00 0.00 0.00 64 1013.8
20260505223533 19 312 4.8 16.1 0.00 0.00 0.00 65 1013.8
20260505223031 18 319 6.4 14.5 0.00 0.00 0.00 68 1013.9
20260505222530 18 281 6.4 14.5 0.00 0.00 0.00 66 1014.2
20260505222030 19 359 6.4 16.1 0.00 0.00 0.00 66 1013.9
20260505221529 19 334 6.4 16.1 0.00 0.00 0.00 67 1014.0
20260505221029 18 315 8.0 14.5 0.00 0.00 0.00 68 1014.0
20260505220529 19 305 8.0 14.5 0.00 0.00 0.00 65 1014.1
20260505220031 18 326 4.8 11.3 0.00 0.00 0.00 67 1014.2
20260505215531 18 315 4.8 12.9 0.00 0.00 0.00 68 1014.1
20260505215029 18 312 6.4 12.9 0.00 0.00 0.00 69 1014.1
20260505214803 18 309 8.0 12.9 0.00 0.00 0.00 67 1014.1
20260505214030 18 329 6.4 11.3 0.00 0.00 0.00 69 1014.1
20260505213805 18 314 4.8 11.3 0.00 0.00 0.00 69 1014.2
20260505213023 18 330 4.8 12.9 0.00 0.00 0.00 69 1014.2
20260505212746 18 345 4.8 12.9 0.00 0.00 0.00 68 1014.3
20260505212010 18 323 4.8 12.9 0.00 0.00 0.00 68 1014.3
20260505211509 18 350 4.8 12.9 0.00 0.00 0.00 68 1014.3
20260505211009 18 345 4.8 8.0 0.00 0.00 0.00 70 1014.4
20260505210750 18 341 4.8 9.7 0.00 0.00 0.00 70 1014.4
20260505210011 18 53 3.2 9.7 0.00 0.00 0.00 70 1014.4
20260505205510 18 295 4.8 12.9 0.00 0.00 0.00 69 1014.4
20260505205009 17 324 4.8 12.9 0.00 0.00 0.00 73 1014.5
20260505204508 18 349 4.8 9.7 0.00 0.00 0.00 70 1014.6
20260505204005 17 326 4.8 11.3 0.00 0.00 0.00 73 1014.5
20260505203505 17 304 4.8 11.3 0.00 0.00 0.00 70 1014.5
20260505203006 18 309 6.4 11.3 0.00 0.00 0.00 69 1014.6
20260505202505 17 317 6.4 12.9 0.00 0.00 0.00 72 1014.6
20260505202006 17 312 6.4 12.9 0.00 0.00 0.00 73 1014.7
20260505201742 17 322 6.4 12.9 0.00 0.00 0.00 72 1014.6
20260505201005 17 305 6.4 12.9 0.00 0.00 0.00 71 1014.6
20260505200504 17 356 4.8 9.7 0.00 0.00 0.00 73 1014.6
20260505200003 18 307 4.8 11.3 0.00 0.00 0.00 69 1014.5
20260505195505 18 314 3.2 11.3 0.00 0.00 0.00 68 1014.4
20260505195006 18 359 3.2 8.0 0.00 0.00 0.00 73 1014.5
20260505194503 17 230 4.8 8.0 0.00 0.00 0.00 71 1014.5
20260505194006 17 307 6.4 11.3 0.00 0.00 0.00 71 1014.6
20260505193734 16 319 6.4 11.3 0.00 0.00 0.00 74 1014.5
20260505193003 16 307 4.8 11.3 0.00 0.00 0.00 76 1014.5
20260505192503 16 317 4.8 8.0 0.00 0.00 0.00 76 1014.6
20260505192003 15 320 4.8 8.0 0.00 0.00 0.00 77 1014.5
20260505191502 16 348 4.8 11.3 0.00 0.00 0.00 80 1014.6
20260505191230 15 332 6.4 12.9 0.00 0.00 0.00 78 1014.5
20260505190501 15 315 4.8 12.9 0.00 0.00 0.00 78 1014.5
20260505190001 15 329 4.8 11.3 0.00 0.00 0.00 78 1014.5
20260505185501 15 321 4.8 8.0 0.00 0.00 0.00 78 1014.5
20260505185001 15 340 6.4 14.5 0.00 0.00 0.00 77 1014.5
20260505184503 15 310 6.4 14.5 0.00 0.00 0.00 78 1014.5
20260505184235 15 322 6.4 12.9 0.00 0.00 0.00 78 1014.5
20260505183503 15 322 6.4 11.3 0.00 0.00 0.00 79 1014.5
20260505183004 16 312 6.4 8.0 0.00 0.00 0.00 78 1014.5
20260505182502 15 316 6.4 12.9 0.00 0.00 0.00 79 1014.5
20260505182001 15 310 6.4 12.9 0.00 0.00 0.00 78 1014.4
20260505181455 16 320 4.8 9.7 0.00 0.00 0.00 76 1014.3
20260505180949 16 307 4.8 9.7 0.00 0.00 0.00 77 1014.3
20260505180445 16 335 6.4 14.5 0.00 0.00 0.00 78 1014.2
20260505175945 15 321 4.8 14.5 0.00 0.00 0.00 76 1014.3
20260505175445 16 329 6.4 14.5 0.00 0.00 0.00 78 1014.3
20260505174945 15 317 6.4 14.5 0.00 0.00 0.00 79 1014.4
20260505174445 15 321 4.8 11.3 0.00 0.00 0.00 78 1014.3
20260505173945 15 325 4.8 12.9 0.00 0.00 0.00 78 1014.3
20260505173444 15 350 4.8 12.9 0.00 0.00 0.00 78 1014.2
20260505173220 14 305 4.8 16.1 0.00 0.00 0.00 80 1014.3
20260505172446 14 335 4.8 16.1 0.00 0.00 0.00 79 1014.1
20260505171943 14 354 4.8 12.9 0.00 0.00 0.00 79 1014.1
20260505171441 14 25 4.8 12.9 0.00 0.00 0.00 80 1014.1
20260505170941 14 311 6.4 16.1 0.00 0.00 0.00 79 1014.1
20260505170437 14 332 8.0 16.1 0.00 0.00 0.00 80 1014.0
20260505165937 13 336 6.4 16.1 0.00 0.00 0.00 81 1014.1
20260505165709 13 302 4.8 12.9 0.00 0.00 0.00 80 1013.9
20260505165209 13 345 8.0 19.3 0.00 0.00 0.00 80 1014.0
20260505164436 13 121 9.7 22.5 0.00 0.00 0.00 81 1014.0
20260505163937 12 99 11.3 25.7 0.00 0.00 0.00 83 1013.9
20260505163438 12 124 11.3 30.6 0.00 0.00 0.00 83 1013.9
20260505162937 12 243 11.3 35.4 0.00 0.00 0.00 84 1013.9
20260505162437 12 122 12.9 35.4 0.00 0.00 0.00 84 1013.9
20260505162201 12 106 14.5 35.4 0.00 0.00 0.00 84 1013.8
20260505161431 12 150 17.7 43.5 0.00 0.00 0.00 85 1013.8
20260505160931 11 101 17.7 43.5 0.00 0.00 0.00 84 1013.8
20260505160434 11 207 16.1 38.6 0.00 0.00 0.00 85 1013.7
20260505152928 11 91 16.1 38.6 0.00 0.00 0.00 87 1013.5
20260505152431 11 309 17.7 48.3 0.00 0.00 0.00 87 1013.6
20260505151932 11 95 19.3 48.3 0.00 0.00 0.00 88 1013.4
20260505151424 11 205 22.5 46.7 0.00 0.00 0.00 88 1013.3
20260505150411 11 189 19.3 46.7 0.00 0.00 0.00 88 1013.0
20260505140637 11 140 25.7 61.2 0.00 0.00 0.00 85 1012.1
20260505124901 13 137 25.7 51.5 0.00 0.00 0.00 78 1011.2
20260505124401 13 178 25.7 46.7 0.00 0.00 0.00 77 1011.1
20260505124132 13 89 25.7 43.5 0.00 0.00 0.00 76 1011.0
20260505123400 13 145 25.7 43.5 0.00 0.00 0.00 75 1011.3
20260505122401 13 102 25.7 49.9 0.00 0.00 0.00 74 1010.9
20260505121904 14 220 24.1 43.5 0.00 0.00 0.00 72 1010.8
20260505121406 14 110 25.7 46.7 0.00 0.00 0.00 72 1011.0
20260505121134 14 102 24.1 46.7 0.00 0.00 0.00 71 1011.0
20260505120401 14 133 22.5 43.5 0.00 0.00 0.00 70 1010.7
20260505115901 14 135 20.9 43.5 0.00 0.00 0.00 68 1010.9
20260505115401 14 217 22.5 41.8 0.00 0.00 0.00 70 1010.8
20260505114902 14 152 22.5 54.7 0.00 0.00 0.00 69 1010.8
20260505114401 14 137 22.5 54.7 0.00 0.00 0.00 70 1010.8
20260505113901 15 126 24.1 48.3 0.00 0.00 0.00 67 1010.6
20260505113401 15 85 29.0 54.7 0.00 0.00 0.00 65 1010.7
20260505112902 15 114 29.0 54.7 0.00 0.00 0.00 63 1010.7
20260505112401 15 166 30.6 51.5 0.00 0.00 0.00 65 1010.4
20260505111402 15 110 30.6 54.7 0.00 0.00 0.00 61 1010.6
20260505110902 15 116 30.6 54.7 0.00 0.00 0.00 60 1010.3
20260505110626 15 148 30.6 51.5 0.00 0.00 0.00 59 1010.3